sat.trackr.live / text

‹ back to catalog

STARLINK-3822

NORAD 52287 · 2022-041AC

PAYLOAD ACTIVE UNKNOWN

§ Identity

Operator
Country
US
Launch date
2022-04-21
Launch site
AFETR
Launch vehicle
Mass (kg)
RCS (m²)

Purposes: comms

External: N2YO · Heavens-Above · Gunter

§ Orbital elements

Epoch: 2026-05-25T05:26:15.589248Z

Period
95.44 min
Inclination
53.2149°
Eccentricity
0.0001261
Mean motion
15.08815841 rev/d
Perigee alt
538.9 km
Apogee alt
540.7 km
Semi-major
6,918.0 km
B*
2.9342e-4
RAAN
125.5317°
Arg perigee
83.1791°
Mean anomaly
276.9344°
Rev number
22,592

§ Raw data

STARLINK-38221 52287U 22041AC  26145.22656932  .00004382  00000+0  29342-3 0  99952 52287  53.2149 125.5317 0001261  83.1791 276.9344 15.08815841225929

JSON: /api/v1/satellites/52287 · /tle

For live sub-satellite position, see the globe view (requires WebGL).

§ Visibility from observer

Set your observer location to see the next 7 days of passes ≥ 10°. The values pass through the URL so the page stays shareable.

No JS? Fill the form by hand. The geolocation button needs JavaScript.